TimeAKDT,TemperatureF,Dew PointF,Humidity,Sea Level PressureIn,VisibilityMPH,Wind Direction,Wind SpeedMPH,Gust SpeedMPH,PrecipitationIn,Events,Conditions,WindDirDegrees,DateUTC
12:55 AM,25.5,17.8,72,29.90,10.0,North,6.9,-,N/A,,Scattered Clouds,10,2013-05-01 08:55:00
1:55 AM,25.5,18.3,74,29.89,10.0,North,8.1,12.7,N/A,,Mostly Cloudy,10,2013-05-01 09:55:00
2:55 AM,25.5,19.2,77,29.87,10.0,NNE,9.2,15.0,N/A,,Mostly Cloudy,20,2013-05-01 10:55:00
3:55 AM,25.2,19.2,78,29.86,10.0,Variable,4.6,-,N/A,Snow,Light Snow Showers,0,2013-05-01 11:55:00
4:55 AM,24.6,19.2,80,29.84,10.0,Variable,5.8,-,N/A,Snow,Light Snow Showers,0,2013-05-01 12:55:00
5:55 AM,23.9,19.4,83,29.83,10.0,Variable,3.5,-,N/A,Snow,Light Snow Showers,0,2013-05-01 13:55:00
6:55 AM,23.7,19.4,84,29.81,10.0,Variable,4.6,-,N/A,Snow,Light Snow,0,2013-05-01 14:55:00
7:55 AM,24.4,19.6,82,29.80,10.0,Variable,6.9,-,N/A,,Mostly Cloudy,0,2013-05-01 15:55:00
8:55 AM,24.8,19.6,81,29.79,10.0,North,8.1,17.3,N/A,Snow,Light Snow Showers,10,2013-05-01 16:55:00
9:55 AM,26.1,20.1,78,29.78,10.0,Variable,6.9,-,N/A,Snow,Light Snow Showers,0,2013-05-01 17:55:00
10:55 AM,26.8,21.0,79,29.78,3.0,North,5.8,13.8,N/A,Snow,Light Snow Showers,10,2013-05-01 18:55:00
11:55 AM,28.4,21.2,74,29.77,5.0,NNE,8.1,15.0,N/A,Snow,Light Snow Showers,30,2013-05-01 19:55:00
12:18 PM,28.4,21.2,74,29.76,2.0,North,9.2,16.1,N/A,Snow,Light Snow Showers,360,2013-05-01 20:18:00
12:34 PM,28.4,21.2,74,29.76,6.0,NNE,6.9,15.0,N/A,Snow,Light Snow,30,2013-05-01 20:34:00
12:55 PM,29.3,21.9,74,29.76,4.0,North,8.1,15.0,N/A,Snow,Light Snow,10,2013-05-01 20:55:00
1:55 PM,29.5,22.3,75,29.75,4.0,NNE,8.1,15.0,N/A,Snow,Light Snow,30,2013-05-01 21:55:00
2:19 PM,30.2,23.0,75,29.75,2.0,NE,9.2,15.0,N/A,Snow,Light Snow,50,2013-05-01 22:19:00
2:49 PM,30.2,23.0,75,29.74,4.0,NNE,8.1,17.3,N/A,Snow,Light Snow,30,2013-05-01 22:49:00
2:55 PM,29.7,21.9,73,29.74,5.0,NNE,8.1,17.3,N/A,Snow,Light Snow,30,2013-05-01 22:55:00
3:55 PM,30.0,23.4,76,29.73,2.5,NNE,9.2,-,N/A,Snow,Light Snow,20,2013-05-01 23:55:00
4:19 PM,32.0,23.0,69,29.73,7.0,North,10.4,17.3,N/A,Snow,Light Snow,360,2013-05-02 00:19:00
4:55 PM,31.6,20.7,64,29.73,10.0,NNE,8.1,16.1,N/A,Snow,Light Snow,20,2013-05-02 00:55:00
5:55 PM,31.3,19.9,63,29.72,10.0,North,12.7,19.6,N/A,Rain,Freezing Rain,10,2013-05-02 01:55:00
6:55 PM,31.1,18.9,61,29.73,10.0,North,11.5,17.3,N/A,Snow,Light Snow,360,2013-05-02 02:55:00
7:55 PM,31.5,17.8,57,29.73,10.0,NNE,10.4,16.1,N/A,Rain-Snow,Freezing Rain,20,2013-05-02 03:55:00
8:55 PM,30.0,19.0,64,29.73,10.0,Variable,6.9,-,N/A,,Mostly Cloudy,0,2013-05-02 04:55:00
9:55 PM,30.0,18.3,62,29.75,10.0,NNE,6.9,18.4,N/A,,Mostly Cloudy,20,2013-05-02 05:55:00
10:55 PM,29.1,15.6,57,29.76,10.0,NNE,8.1,-,N/A,,Mostly Cloudy,20,2013-05-02 06:55:00
11:55 PM,28.0,15.8,60,29.78,10.0,Variable,6.9,-,N/A,,Mostly Cloudy,0,2013-05-02 07:55:00